Find Starlink 38371

NORAD ID: 100505 Int'l Des: 2026-197 Owner: SPXS Country: US Constellation: starlink operational

Aktuelle Ansicht

3D-Globus wird geladen...

About Starlink 38371

Starlink 38371 (NORAD 100505) is a starlink constellation satellite launched Aug 25, 2026 by SPXS of US. with a mass of 575.00 kg.

Nächste Überflüge

Passes for default location (London). Set your location on the main map for personalized predictions.

Höhenverlauf

Loading altitude history...

Zweizeiliger Elementsatz

1 A0505U 26197D 26262.92044063 .00341137 00000-0 15927-2 0 9996
2 A0505 69.9992 123.0536 0004114 277.5644 82.5090 15.82221163 3908
Epoch: 19. Sept. 2026 • Age: 19 hours

Aktueller Status

Höhe 331.7 km
Apogäum / Perigäum N/A
Geschwindigkeit 7.71 km/s
Subsatellitenpunkt 46.69°N, 26.04°E
Startdatum 25. Aug. 2026
Alter 26 days
Typ internet

Technische Details

Klassifizierung Payload
Masse 575.00 kg
Trockenmasse 530.00 kg
Länge 0.30 m
Spannweite 29.00 m
Form ? Box + pan
Hersteller SPXS
Bus-Typ Starlink V2MO
Phasenstatus In Orbit
Besitzer/Staat SPXS/US

Most Searched